Location: Biharia
(46.4333°N, 22.8000°E)
Time: 17:47:52
(UTC+00:00)

FENGYUN 1C DEB - Pass Details

Date: 14 August 2022
Orbit: 796 x 915 km, 98.9° (Epoch: 24 September)

Event Time Altitude Azimuth Distance (km) Brightness Sun altitude
Rises 00:18:21 0° 7° (N) 3,452 ? -24.7°
Reaches altitude 10° 00:20:55 10° 360° (N) 2,492 ? -24.5°
Maximum altitude 00:25:53 36° 296° (WNW) 1,310 ? -24.1°
Enters shadow 00:26:45 33° 275° (W) 1,357 ? -24.0°
